Location: Arbon
(43.0005°N, 0.7472°E)
Time: 11:49:05
(UTC+00:00)

Cosmos 1782 Rocket - Pass Details

Date: 22 April 2026
Orbit: 601 x 624 km, 82.5° (Epoch: 15 May)

Event Time Altitude Azimuth Distance (km) Brightness Sun altitude
Exits shadow 20:58:39 60° 165° (SSE) 688 3.4 -21.4°
Maximum altitude 20:59:21 79° 97° (E) 618 3.3 -21.5°
Drops below altitude 10° 21:03:40 10° 11° (N) 1,952 6.5 -22.1°
Sets 21:05:53 0° 10° (N) 2,861 7.5 -22.4°
